Temperature
17 17 17 17 17 17 17 17 17 17 17 16 16 16 16 16 15 15 15 15 15 15 15 15 15 15 15 15 15 15 15 15 15 15 16 16 16 16 16 16 16 16 16
17 17 17 17 17 17 17 17 17 16 16 16 16 16 16 16 15 15 15 15 15 15 15 15 15 15 15 15 15 15 15 15 15 15 15 15 15 15 15 15 15 15 15
17 17 17 17 17 17 17 17 16 16 16 16 16 16 16 16 15 15 15 15 15 15 15 15 15 15 15 15 15 15 15 14 14 14 15 15 15 15 15 15 15 15 15
17 17 17 17 17 17 17 16 16 16 16 16 16 15 15 15 15 15 15 15 15 15 15 15 15 14 14 14 14 14 14 14 14 14 14 14 14 14 14 14 14 14 14
17 17 17 17 17 16 16 16 16 16 16 15 15 15 15 15 15 15 15 15 14 14 14 14 14 14 14 14 14 14 14 14 14 13 13 13 13 13 13 13 13 13 13
17 17 17 16 16 16 16 16 16 15 15 15 15 15 14 14 14 14 14 14 14 14 14 14 14 14 14 13 13 13 13 13 13 13 12 12 12 12 12 12 12 12 12
17 16 16 16 16 16 16 15 15 15 15 15 14 14 14 14 14 14 14 14 14 13 13 13 13 13 13 13 12 12 12 12 12 12 11 11 11 11 11 11 11 11 11
16 16 16 16 16 15 15 15 15 14 14 14 14 14 14 13 13 13 13 13 13 13 12 12 12 12 12 12 11 11 11 11 11 10 10 10 10 9 9 9 9 9 9
16 16 15 15 15 15 14 14 14 14 13 13 13 13 13 12 12 12 12 12 12 12 11 11 11 11 11 11 11 10 10 10 9 9 9 8 8 8 8 8 8 8 8
15 15 15 15 15 14 14 14 13 13 13 12 12 12 12 12 11 11 11 11 11 11 11 10 10 10 10 9 9 9 9 8 8 8 8 7 7 7 7 7 7 7 7
15 15 14 14 14 14 13 13 13 12 12 12 11 11 11 11 11 11 11 11 10 10 10 9 9 8 8 8 8 8 7 7 7 7 7 7 7 7 6 6 6 6 5
14 14 13 13 13 13 13 12 12 12 11 11 11 11 10 10 10 10 9 9 9 9 9 8 8 7 7 7 7 7 6 6 6 6 6 6 6 6 5 5 5 5 4
13 13 13 13 12 12 12 11 11 11 11 10 10 10 9 9 9 8 8 8 8 8 7 7 7 7 6 6 6 6 6 5 5 5 5 4 4 4 4 4 4 4 4
13 12 12 12 11 11 11 11 10 10 10 10 9 9 8 8 8 8 7 7 7 7 7 6 6 6 6 5 5 5 5 4 4 4 3 3 3 3 3 3 3 3 3
12 11 11 11 11 10 10 10 9 9 9 9 9 8 8 8 7 7 7 6 6 6 6 6 5 5 5 4 4 4 4 3 3 3 3 3 3 3 2 2 2 2 2
11 11 11 10 10 10 9 9 8 8 8 8 8 8 7 7 6 6 6 6 5 5 5 5 5 4 4 3 3 3 3 2 2 2 2 2 2 2 2 2 1 1 1
11 11 10 10 9 9 9 9 8 7 7 7 7 7 7 6 6 6 5 5 5 5 5 4 4 3 3 3 2 2 2 2 2 2 1 1 1 1 1 1 1 1 1
10 10 10 9 9 9 9 8 8 8 7 6 6 6 6 6 5 5 5 5 4 4 4 3 3 2 2 2 2 1 1 1 1 1 1 1 1 1 1 0 0 0 0
10 9 9 9 9 8 8 8 7 7 7 6 6 5 5 5 5 4 4 4 4 3 3 2 2 2 2 1 1 1 1 1 1 1 1 0 0 0 0 -0 -0 -0 -0
9 9 9 9 8 8 7 7 7 7 6 6 6 5 5 5 4 4 4 3 3 3 2 2 2 1 1 1 1 1 1 0 0 0 0 0 -0 -0 -0 -0 -0 -0 -0
9 8 8 8 8 8 7 7 7 6 6 6 5 5 4 4 4 3 3 3 2 2 2 2 1 1 1 1 0 0 0 0 0 0 -0 -0 -0 -0 -0 -1 -1 -1 -1
9 8 8 8 8 7 7 7 6 6 6 5 5 5 4 4 3 3 3 2 2 2 2 1 1 1 1 0 0 0 0 0 -0 -0 -0 -0 -0 -1 -1 -1 -1 -1 -1
8 8 8 8 7 7 7 6 6 6 6 5 5 4 4 4 3 3 3 2 2 2 1 1 1 1 1 0 0 0 -0 -0 -0 -0 -0 -1 -1 -1 -1 -1 -1 -1 -1
8 8 8 7 7 7 7 6 6 6 5 5 4 4 4 3 3 3 2 2 2 2 1 1 1 1 1 0 0 -0 -0 -0 -0 -1 -1 -1 -1 -1 -1 -1 -1 -1 -1
8 8 8 7 7 7 6 6 6 5 5 5 4 4 4 3 3 3 2 2 2 2 1 1 1 1 0 0 0 -0 -0 -0 -1 -1 -1 -1 -1 -1 -1 -1 -1 -1 -1
8 8 7 7 7 7 6 6 6 5 5 4 4 4 3 3 3 2 2 2 2 1 1 1 1 1 0 0 -0 -0 -0 -1 -1 -1 -1 -1 -1 -1 -1 -1 -1 -1 -1
Wind_Speed
8 8 7 7 7 6 6 7 6 6 6 7 7 7 7 7 6 6 5 5 5 3 3 3 3 2 2 2 2 2 2 3 3 3 2 2 2 3 4 3 4 4 6
7 7 7 6 6 6 6 6 6 6 6 7 7 6 6 6 6 6 5 5 5 4 3 3 3 2 2 2 2 2 2 3 3 3 1 1 2 2 3 2 3 3 4
6 7 6 6 6 6 6 5 6 6 6 6 6 6 5 5 5 5 5 5 4 3 3 3 2 2 2 1 1 1 1 2 2 2 2 1 1 2 2 2 3 3 4
6 6 6 6 6 6 5 5 6 6 7 6 6 6 5 4 4 4 5 4 4 3 3 2 2 2 1 1 1 1 1 1 1 1 1 1 1 2 2 3 3 3 4
6 6 6 5 6 6 6 6 6 6 7 7 7 6 5 4 3 5 5 5 5 4 4 4 4 5 4 2 1 1 1 1 1 0 1 1 2 3 3 3 3 3 2
6 5 5 6 6 6 6 7 7 7 7 7 7 7 6 4 5 6 7 6 5 5 5 5 6 8 9 10 10 9 7 3 2 1 1 2 2 2 3 3 3 3 3
5 5 5 6 7 7 7 7 7 7 7 8 7 8 7 7 8 9 9 8 7 7 6 6 6 6 7 7 11 14 14 15 10 4 4 3 3 4 3 3 3 2 2
6 6 6 7 8 8 8 8 8 7 8 7 7 8 8 8 10 12 13 10 9 8 7 7 7 6 7 7 9 11 11 11 10 8 7 6 5 5 3 2 2 3 2
7 7 7 8 8 9 9 9 9 9 9 9 8 9 9 9 10 11 10 9 9 10 9 9 8 8 9 10 10 10 10 9 13 16 15 14 15 15 10 5 5 4 3
7 8 8 8 9 10 10 10 10 10 10 10 11 10 10 9 11 12 11 8 9 9 9 10 13 12 12 12 10 9 9 7 7 8 10 12 13 14 15 9 5 4 3
9 10 10 10 10 11 11 10 11 11 11 11 11 10 10 10 11 13 11 8 9 9 8 8 9 14 15 14 12 10 9 7 7 8 8 8 8 8 10 10 8 4 3
11 12 11 11 11 11 12 11 11 11 12 11 11 10 9 9 11 12 14 12 11 11 9 8 9 14 15 14 12 12 12 9 7 7 8 8 7 7 7 9 9 8 4
13 13 12 12 11 10 11 11 10 9 9 9 9 9 8 7 9 14 14 15 14 10 10 13 13 14 13 12 15 14 10 8 7 7 7 6 6 6 7 7 8 9 8
14 13 12 13 12 11 9 9 9 8 9 9 9 8 8 7 7 7 7 9 12 11 10 12 14 15 12 11 10 9 8 7 7 6 5 5 5 6 7 6 6 7 6
14 13 12 12 13 12 11 9 9 7 7 9 8 7 8 7 5 8 8 7 7 8 8 8 8 7 8 8 7 7 7 7 6 5 5 5 6 7 6 6 6 6 6
13 12 10 11 11 11 12 13 17 14 16 14 11 10 8 10 12 14 15 14 13 11 9 7 7 7 6 6 6 5 5 6 5 5 5 6 6 6 7 6 6 6 7
13 12 10 10 10 10 10 12 12 12 16 16 14 14 13 13 14 15 15 15 13 11 8 7 6 5 5 4 4 4 4 5 4 5 5 6 6 6 6 7 7 7 8
13 13 12 9 9 9 10 10 10 10 9 8 10 13 14 14 13 13 13 11 8 7 6 5 4 4 3 3 3 3 4 4 5 5 6 6 6 6 7 7 7 8 8
12 10 10 10 9 9 9 9 9 9 9 7 6 7 10 11 12 11 8 6 5 4 4 3 3 2 2 2 2 3 3 4 5 6 6 6 6 6 6 7 7 9 8
10 14 12 10 9 9 8 9 8 8 8 7 6 5 3 5 5 5 4 4 4 3 2 2 2 1 1 2 2 3 4 5 6 6 6 6 6 6 7 8 8 8 8
9 10 13 10 8 8 8 8 7 7 7 6 5 4 5 5 5 4 3 3 2 2 1 1 1 1 1 2 2 3 4 5 5 6 6 6 6 6 6 7 8 8 8
8 8 7 8 7 7 7 6 6 7 7 7 5 5 7 5 4 3 2 2 1 1 1 1 1 1 1 1 2 3 4 5 5 6 6 6 6 7 7 7 8 8 9
8 9 8 7 7 8 7 6 6 6 6 6 5 4 4 3 3 2 2 1 1 1 1 2 1 0 1 2 2 3 3 5 5 6 6 7 7 7 7 8 10 10 10
8 9 8 7 7 7 6 6 6 6 6 5 5 4 4 3 2 2 1 1 1 1 1 1 0 1 2 3 3 4 5 6 7 7 8 7 7 7 7 8 9 10 10
8 8 8 7 7 7 7 6 6 6 5 5 4 4 3 3 2 2 1 1 1 1 1 1 2 3 4 4 5 6 8 9 8 8 8 7 7 8 8 9 9 10 10
7 7 7 6 6 6 6 6 6 6 5 4 4 3 3 3 2 2 2 2 2 2 2 2 3 4 5 5 6 8 9 10 11 11 8 7 7 7 9 8 10 9 10
Wind_Direction
184 184 181 183 182 177 182 188 185 181 176 177 178 175 174 173 171 169 172 171 175 180 179 178 194 184 184 188 180 182 190 187 218 262 261 291 309 327 338 324 295 281 278
178 175 177 174 172 177 188 186 178 176 174 173 169 169 174 171 169 172 176 174 175 182 184 179 199 188 187 187 184 195 202 203 210 245 280 300 306 332 330 336 336 320 301
166 168 171 174 176 181 184 176 168 166 160 155 153 156 160 159 160 167 166 164 166 170 166 171 185 163 180 175 182 198 214 208 205 220 267 306 317 346 343 345 352 349 341
162 164 174 184 181 175 164 155 154 151 147 144 141 141 140 140 148 151 151 150 146 139 133 131 125 141 176 173 173 200 180 166 175 209 278 329 332 345 3 355 349 354 357
156 164 177 174 164 152 145 140 135 137 140 134 125 117 112 115 127 137 138 135 128 115 96 87 76 76 74 85 90 86 119 124 126 111 17 20 10 6 359 348 339 336 349
151 164 159 150 144 139 137 133 129 126 124 119 117 112 101 97 98 114 121 116 111 105 95 82 72 63 66 68 69 65 62 62 61 63 47 36 12 358 353 353 347 350 340
141 139 131 131 131 130 128 123 121 116 108 103 104 103 96 87 94 102 107 103 93 87 85 81 75 64 65 76 73 68 59 54 55 71 60 37 15 358 353 354 352 341 319
131 123 118 121 120 117 115 112 105 100 99 96 96 98 94 83 89 96 97 92 85 76 73 75 79 68 68 84 84 74 65 54 54 61 65 49 38 19 10 357 335 329 313
127 122 122 120 119 116 113 108 104 100 94 88 85 86 87 77 79 91 98 94 87 74 66 64 72 73 68 81 86 82 71 58 59 62 62 55 48 41 35 32 23 16 353
123 120 117 116 115 112 110 106 100 97 94 88 80 73 77 76 73 82 92 98 92 85 73 64 63 71 67 71 80 81 75 58 53 52 47 42 40 39 39 38 25 16 357
110 105 102 102 106 108 106 103 103 100 95 90 83 70 64 64 66 72 83 96 102 94 83 72 66 70 70 69 72 74 76 73 64 60 52 41 35 31 27 25 23 21 7
106 103 101 101 104 107 105 101 100 103 99 93 86 74 60 55 60 69 74 83 95 96 90 84 78 75 73 69 70 67 64 63 60 54 46 35 26 19 10 6 7 8 358
106 104 102 99 99 102 106 106 101 97 98 95 92 86 73 63 61 66 75 81 85 89 91 91 83 76 72 68 64 61 57 57 54 49 39 24 10 359 359 358 0 358 351
106 104 102 100 95 89 89 94 101 103 105 103 100 97 89 77 72 74 79 84 84 88 89 81 74 68 67 63 57 53 52 52 53 45 28 11 2 2 4 359 353 351 347
106 105 103 100 101 91 80 70 80 71 104 114 110 108 105 94 77 91 100 95 97 102 96 80 72 67 63 58 54 49 45 42 39 28 19 11 4 0 356 353 349 346 345
110 106 106 106 103 101 98 83 63 74 78 83 95 102 90 100 101 92 89 91 92 95 87 81 75 71 66 59 53 45 37 30 22 15 12 6 358 352 347 346 346 343 337
111 111 110 109 110 109 108 108 100 76 67 69 79 93 103 106 101 98 93 85 79 83 86 85 80 73 66 58 49 41 27 12 7 9 5 358 351 347 343 342 342 338 334
105 108 110 109 111 110 109 109 111 112 101 77 65 82 95 97 96 97 97 87 72 68 84 88 83 74 65 55 43 27 14 7 6 2 358 354 350 344 340 339 337 334 329
109 110 109 108 107 108 108 107 107 107 108 106 96 78 79 85 79 73 76 88 95 85 82 82 80 71 57 43 27 15 8 2 357 352 351 349 345 340 335 333 330 327 326
107 113 113 113 112 111 112 114 114 116 116 114 110 108 99 91 86 69 64 81 91 91 88 85 74 63 46 29 16 7 2 357 353 348 342 340 338 334 330 329 328 327 325
112 116 115 114 117 119 120 121 122 123 121 116 110 110 119 112 108 99 91 88 97 105 105 98 87 55 31 16 7 359 354 347 344 340 336 334 333 329 326 323 323 322 322
117 118 120 122 121 120 121 123 124 124 126 121 113 101 102 104 110 108 103 96 92 98 119 125 113 66 20 10 357 347 341 338 337 335 331 328 326 325 324 324 325 325 324
123 122 119 118 120 123 122 125 128 128 127 125 125 121 118 117 119 116 110 98 98 103 115 130 129 67 6 354 343 332 324 323 321 319 319 320 322 324 323 322 322 323 324
126 130 131 129 128 131 133 132 132 133 134 135 135 137 141 141 140 139 138 136 135 133 134 144 199 316 328 332 327 323 317 315 316 313 312 310 314 317 319 319 318 320 321
126 131 135 136 137 138 138 139 139 139 140 144 147 150 156 157 161 170 182 186 177 181 214 266 294 305 310 315 317 320 325 329 328 323 316 311 312 316 319 318 320 321 324
125 129 132 134 137 141 143 145 148 149 151 155 159 167 173 179 188 199 208 214 218 227 245 266 283 293 297 301 308 316 324 329 331 331 323 313 315 318 324 320 322 324 326
Height
1501 1504 1507 1510 1513 1516 1519 1522 1524 1527 1530 1532 1535 1537 1539 1542 1544 1546 1548 1550 1551 1553 1554 1555 1556 1557 1557 1558 1558 1559 1559 1559 1559 1559 1559 1559 1559 1558 1558 1558 1558 1558 1558
1499 1502 1505 1508 1510 1513 1516 1519 1522 1524 1527 1530 1532 1534 1537 1539 1542 1544 1546 1548 1549 1551 1552 1552 1553 1554 1554 1555 1555 1556 1556 1556 1556 1555 1555 1555 1555 1555 1554 1554 1554 1554 1554
1497 1500 1502 1505 1507 1510 1513 1516 1519 1521 1524 1527 1529 1532 1534 1537 1539 1541 1543 1545 1547 1548 1549 1550 1550 1551 1551 1552 1552 1552 1552 1552 1552 1552 1551 1551 1551 1551 1550 1550 1550 1549 1549
1495 1498 1500 1503 1505 1508 1510 1513 1516 1519 1521 1524 1527 1529 1532 1534 1537 1539 1541 1542 1544 1545 1546 1547 1547 1548 1548 1549 1549 1549 1549 1549 1549 1548 1548 1547 1547 1546 1546 1545 1545 1545 1544
1493 1496 1499 1501 1504 1506 1508 1511 1514 1516 1519 1522 1524 1527 1529 1531 1534 1536 1538 1539 1541 1542 1543 1544 1544 1545 1545 1545 1545 1545 1545 1545 1545 1544 1544 1543 1543 1542 1542 1541 1540 1539 1539
1492 1494 1497 1500 1502 1504 1507 1509 1511 1514 1517 1519 1522 1524 1527 1529 1531 1534 1535 1536 1538 1539 1540 1541 1541 1542 1542 1542 1542 1542 1542 1542 1541 1541 1540 1540 1539 1539 1538 1537 1536 1535 1534
1491 1494 1496 1498 1501 1503 1506 1508 1510 1512 1515 1517 1519 1522 1525 1527 1529 1531 1533 1534 1535 1536 1537 1538 1539 1539 1540 1540 1540 1539 1539 1539 1539 1539 1538 1537 1536 1535 1534 1533 1532 1531 1530
1490 1493 1495 1497 1500 1502 1504 1507 1509 1511 1514 1516 1518 1521 1523 1525 1527 1529 1531 1532 1533 1534 1535 1536 1537 1538 1538 1538 1538 1537 1537 1537 1536 1535 1535 1534 1534 1533 1532 1531 1529 1528 1527
1489 1491 1494 1497 1499 1502 1504 1506 1509 1511 1513 1515 1518 1519 1521 1523 1525 1528 1530 1531 1532 1533 1534 1535 1536 1536 1536 1536 1536 1536 1535 1535 1535 1534 1534 1533 1532 1531 1529 1528 1526 1525 1523
1488 1491 1494 1497 1499 1501 1504 1506 1509 1511 1514 1516 1518 1520 1522 1524 1526 1527 1529 1530 1531 1532 1533 1534 1535 1535 1535 1535 1535 1535 1535 1535 1535 1534 1533 1532 1530 1529 1527 1526 1524 1522 1520
1488 1491 1494 1497 1500 1502 1505 1507 1510 1512 1515 1517 1519 1521 1523 1525 1527 1528 1529 1530 1531 1532 1533 1534 1535 1536 1535 1535 1535 1535 1535 1535 1534 1533 1532 1531 1529 1527 1525 1524 1522 1520 1518
1488 1491 1494 1497 1500 1503 1506 1509 1511 1514 1516 1519 1521 1523 1525 1526 1528 1529 1530 1531 1533 1533 1534 1536 1536 1537 1537 1536 1536 1535 1535 1535 1534 1532 1531 1529 1527 1525 1523 1522 1520 1518 1516
1489 1492 1496 1499 1501 1505 1507 1510 1513 1516 1518 1520 1522 1524 1526 1528 1530 1531 1532 1533 1535 1535 1536 1537 1538 1538 1538 1537 1537 1536 1535 1534 1533 1531 1529 1528 1526 1524 1522 1520 1517 1515 1513
1491 1494 1497 1500 1503 1507 1510 1513 1516 1518 1520 1522 1524 1526 1528 1530 1532 1534 1535 1536 1537 1538 1538 1539 1540 1540 1539 1538 1537 1536 1535 1534 1532 1531 1529 1527 1525 1522 1519 1516 1514 1511 1509
1493 1496 1499 1502 1505 1509 1512 1516 1519 1522 1524 1526 1528 1530 1531 1533 1535 1537 1538 1539 1540 1540 1541 1541 1541 1541 1540 1539 1538 1536 1535 1534 1532 1530 1528 1525 1523 1520 1517 1514 1511 1508 1506
1496 1499 1503 1506 1509 1512 1515 1518 1523 1525 1528 1530 1532 1533 1535 1536 1538 1539 1540 1541 1542 1542 1542 1542 1541 1541 1540 1539 1538 1537 1535 1533 1531 1529 1527 1524 1521 1518 1515 1512 1510 1507 1504
1499 1502 1506 1509 1513 1516 1519 1521 1524 1529 1531 1533 1535 1537 1538 1540 1541 1542 1543 1544 1544 1544 1543 1543 1542 1542 1541 1540 1539 1537 1535 1533 1531 1528 1526 1523 1520 1517 1514 1511 1508 1505 1502
1503 1507 1510 1513 1517 1520 1523 1526 1528 1531 1533 1536 1538 1540 1542 1543 1544 1545 1545 1546 1545 1544 1544 1544 1543 1543 1542 1541 1539 1537 1536 1533 1531 1528 1525 1522 1519 1515 1512 1509 1506 1503 1500
1508 1511 1514 1518 1521 1524 1527 1530 1532 1535 1537 1539 1541 1543 1545 1546 1546 1547 1547 1547 1546 1546 1545 1545 1544 1544 1543 1541 1539 1537 1535 1533 1530 1527 1524 1521 1517 1514 1511 1508 1505 1502 1499
1513 1516 1519 1522 1525 1528 1531 1533 1536 1538 1540 1542 1544 1546 1547 1548 1548 1548 1548 1548 1547 1547 1546 1546 1545 1544 1543 1541 1539 1537 1534 1532 1529 1526 1523 1519 1516 1513 1510 1507 1503 1500 1497
1517 1520 1523 1526 1529 1532 1534 1537 1539 1541 1543 1544 1546 1548 1549 1549 1549 1549 1549 1549 1549 1548 1547 1546 1545 1544 1542 1540 1538 1536 1533 1530 1527 1524 1521 1518 1515 1511 1508 1505 1502 1498 1495
1522 1524 1527 1530 1532 1535 1537 1540 1542 1543 1545 1546 1548 1549 1550 1550 1550 1550 1550 1550 1549 1548 1548 1546 1545 1543 1542 1539 1537 1535 1532 1529 1526 1522 1519 1516 1513 1510 1507 1503 1500 1496 1493
1526 1528 1531 1533 1535 1537 1540 1542 1544 1545 1547 1548 1549 1550 1551 1551 1551 1551 1551 1550 1549 1548 1547 1546 1544 1543 1541 1538 1536 1533 1530 1527 1524 1521 1517 1514 1511 1508 1505 1501 1498 1494 1491
1528 1531 1533 1535 1537 1539 1541 1543 1545 1547 1548 1549 1550 1551 1551 1552 1552 1551 1551 1550 1549 1548 1547 1545 1543 1541 1539 1537 1534 1531 1528 1525 1522 1519 1516 1513 1510 1506 1503 1500 1496 1493 1490
1531 1533 1535 1537 1539 1541 1543 1544 1546 1547 1549 1550 1550 1551 1551 1551 1551 1551 1550 1549 1548 1547 1545 1544 1542 1540 1538 1535 1533 1530 1527 1524 1520 1517 1514 1511 1508 1505 1502 1498 1495 1492 1489
1533 1535 1537 1539 1540 1542 1544 1545 1547 1548 1549 1550 1550 1551 1551 1551 1551 1550 1549 1548 1547 1546 1544 1543 1541 1539 1536 1534 1531 1528 1525 1522 1519 1516 1513 1510 1507 1503 1500 1497 1494 1491 1487